Location: Central Falls
(41.8900°N, 71.3929°W)
Time: 16:00:23
(UTC+00:00)

Vanguard 1 Rocket - Pass Details

Date: 08 December 2023
Orbit: 654 x 4218 km, 34.3° (Epoch: 24 February)

Event Time Altitude Azimuth Distance (km) Brightness Sun altitude
Rises 13:01:33 0° 274° (W) 7,418 11.6 8.4°
Reaches altitude 10° 13:07:28 10° 270° (W) 5,860 11.1 9.2°
Maximum altitude 13:22:14 50° 203° (SSW) 2,220 9.8 11.2°
Drops below altitude 10° 13:29:57 10° 130° (SE) 3,164 13.0 12.2°
Sets 13:32:11 0° 124° (SE) 3,850 12.4 12.5°
